KLM42E EHAM-KJFK

Flight info

Callsign KLM42E
Flight time 7h 18m
Altitude 36000
Route BERGI L602 NALAX L46 GETNO DCT MOLAK DCT KOKIB DCT VENER/M081F380 NATC UMESI/N0473F380 N500C EBONY DCT ENE PARCH3
Aircraft B77W/H-SDE1E2E3FGHIJ2J3J4J5M1RWXY/LB1D1

Departure

Time 2026-05-09 09:11
Airport Amsterdam Airport Schiphol (EHAM)

Arrival

Time 2026-05-09 16:29
Airport John F. Kennedy International Airport (KJFK)
Time Latitude Longitude Altitude Speed Heading
2026-05-09 08:55 52.30772 4.76857 4 ft 0 kts 58°
2026-05-09 09:01 52.30766 4.76843 5 ft 2 kts 57°
2026-05-09 09:02 52.30754 4.76814 4 ft 4 kts 47°
2026-05-09 09:02 52.30734 4.76791 7 ft 4 kts 358°
2026-05-09 09:02 52.30714 4.76805 7 ft 4 kts 323°
2026-05-09 09:02 52.30700 4.76823 6 ft 4 kts 320°
2026-05-09 09:03 52.30687 4.76839 6 ft 0 kts 324°
2026-05-09 09:04 52.30701 4.76820 6 ft 2 kts 310°
2026-05-09 09:04 52.30701 4.76754 6 ft 13 kts 238°
2026-05-09 09:05 52.30622 4.76802 4 ft 23 kts 128°
2026-05-09 09:05 52.30492 4.76987 4 ft 21 kts 148°
2026-05-09 09:05 52.30441 4.77140 4 ft 16 kts 70°
2026-05-09 09:05 52.30527 4.77375 4 ft 31 kts 62°
2026-05-09 09:06 52.30646 4.77584 4 ft 22 kts 14°
2026-05-09 09:06 52.30781 4.77598 4 ft 25 kts
2026-05-09 09:06 52.31018 4.77622 4 ft 42 kts
2026-05-09 09:06 52.31306 4.77648 4 ft 42 kts
2026-05-09 09:07 52.31528 4.77529 4 ft 30 kts 314°
2026-05-09 09:07 52.31573 4.77200 4 ft 32 kts 268°
2026-05-09 09:07 52.31561 4.76879 4 ft 22 kts 267°
2026-05-09 09:07 52.31551 4.76599 4 ft 31 kts 266°
2026-05-09 09:08 52.31535 4.76156 4 ft 47 kts 266°
2026-05-09 09:08 52.31517 4.75614 4 ft 39 kts 266°
2026-05-09 09:08 52.31522 4.75397 4 ft 11 kts 296°
2026-05-09 09:08 52.31503 4.75126 4 ft 0 kts 268°
2026-05-09 09:09 52.31498 4.74998 4 ft 20 kts 266°
2026-05-09 09:09 52.31490 4.74769 4 ft 20 kts 273°
2026-05-09 09:09 52.31540 4.74672 4 ft 12 kts 340°
2026-05-09 09:09 52.31652 4.74704 4 ft 16 kts 47°
2026-05-09 09:10 52.31670 4.74817 4 ft 0 kts 88°
2026-05-09 09:10 52.31670 4.74829 3 ft 0 kts 87°
2026-05-09 09:10 52.31670 4.74832 3 ft 0 kts 87°
2026-05-09 09:10 52.31673 4.74919 2 ft 24 kts 87°
2026-05-09 09:11 52.31702 4.75805 4 ft 135 kts 87°
2026-05-09 09:11 52.31765 4.77895 322 ft 218 kts 87°
2026-05-09 09:11 52.31836 4.80491 1539 ft 217 kts 86°
2026-05-09 09:11 52.32248 4.82526 2475 ft 187 kts 50°
2026-05-09 09:12 52.33316 4.83823 3118 ft 200 kts 25°
2026-05-09 09:12 52.34794 4.84448 3807 ft 239 kts
2026-05-09 09:12 52.36435 4.83903 4274 ft 247 kts 330°
2026-05-09 09:12 52.37703 4.81891 4790 ft 261 kts 303°
2026-05-09 09:13 52.38669 4.79318 5349 ft 268 kts 301°
2026-05-09 09:13 52.39809 4.76935 5819 ft 267 kts 316°
2026-05-09 09:13 52.41194 4.74904 6019 ft 272 kts 316°
2026-05-09 09:13 52.42563 4.72742 5998 ft 272 kts 315°
2026-05-09 09:14 52.43894 4.70575 6055 ft 267 kts 315°
2026-05-09 09:14 52.45192 4.68458 6492 ft 261 kts 314°
2026-05-09 09:14 52.46515 4.66352 7221 ft 269 kts 320°
2026-05-09 09:14 52.48190 4.64905 7980 ft 279 kts 339°
2026-05-09 09:15 52.50038 4.63810 8788 ft 285 kts 338°
2026-05-09 09:15 52.51899 4.62651 9577 ft 288 kts 337°
2026-05-09 09:15 52.53779 4.61458 10349 ft 292 kts 337°
2026-05-09 09:15 52.55621 4.60277 11067 ft 295 kts 337°
2026-05-09 09:16 52.57543 4.59037 11800 ft 298 kts 337°
2026-05-09 09:16 52.61437 4.56510 13356 ft 306 kts 337°
2026-05-09 09:16 52.63401 4.55230 14133 ft 310 kts 337°
2026-05-09 09:17 52.65419 4.53914 14867 ft 315 kts 337°
2026-05-09 09:17 52.67428 4.52494 15605 ft 319 kts 327°
2026-05-09 09:17 52.69067 4.50024 16388 ft 326 kts 303°
2026-05-09 09:17 52.70343 4.46875 17224 ft 338 kts 301°
2026-05-09 09:18 52.71685 4.43593 18070 ft 352 kts 302°
2026-05-09 09:18 52.73093 4.40210 18859 ft 363 kts 302°
2026-05-09 09:18 52.74550 4.36731 19601 ft 374 kts 302°
2026-05-09 09:18 52.75974 4.33085 20349 ft 381 kts 298°
2026-05-09 09:19 52.77299 4.29235 21119 ft 388 kts 297°
2026-05-09 09:19 52.78596 4.25302 21903 ft 393 kts 297°
2026-05-09 09:19 52.79906 4.21304 22716 ft 398 kts 297°
2026-05-09 09:19 52.81240 4.17262 23530 ft 400 kts 297°
2026-05-09 09:20 52.82584 4.13219 24258 ft 402 kts 297°
2026-05-09 09:20 52.83938 4.09173 24948 ft 403 kts 297°
2026-05-09 09:20 52.85273 4.05191 25659 ft 403 kts 297°
2026-05-09 09:20 52.86627 4.01151 26389 ft 402 kts 297°
2026-05-09 09:21 52.87975 3.97128 27138 ft 400 kts 297°
2026-05-09 09:21 52.89317 3.93118 27901 ft 397 kts 297°
2026-05-09 09:21 52.90631 3.89185 28674 ft 394 kts 297°
2026-05-09 09:21 52.91947 3.85239 29475 ft 389 kts 297°
2026-05-09 09:22 52.93262 3.81287 30286 ft 383 kts 296°
2026-05-09 09:22 52.94521 3.77500 30985 ft 377 kts 296°
2026-05-09 09:22 52.95771 3.73734 31706 ft 369 kts 296°
2026-05-09 09:22 52.96991 3.70051 32429 ft 360 kts 296°
2026-05-09 09:23 52.98178 3.66465 33162 ft 350 kts 296°
2026-05-09 09:23 52.99334 3.62975 33881 ft 340 kts 296°
2026-05-09 09:23 53.00465 3.59547 34249 ft 340 kts 296°
2026-05-09 09:23 53.01618 3.56046 34216 ft 351 kts 296°
2026-05-09 09:24 53.03989 3.48893 34601 ft 357 kts 295°
2026-05-09 09:24 53.05187 3.45285 34927 ft 355 kts 295°
2026-05-09 09:24 53.06368 3.41720 35203 ft 356 kts 295°
2026-05-09 09:25 53.07566 3.38093 35369 ft 359 kts 295°
2026-05-09 09:25 53.08773 3.34432 35529 ft 362 kts 295°
2026-05-09 09:25 53.09841 3.30643 35744 ft 362 kts 288°
2026-05-09 09:25 53.10634 3.26672 35943 ft 361 kts 281°
2026-05-09 09:26 53.11199 3.22594 36082 ft 364 kts 280°
2026-05-09 09:26 53.11741 3.18444 36144 ft 370 kts 279°
2026-05-09 09:26 53.12835 3.09963 36191 ft 384 kts 280°
2026-05-09 09:27 53.13991 3.01095 36190 ft 400 kts 279°
2026-05-09 09:27 53.15200 2.91855 36187 ft 416 kts 279°
2026-05-09 09:28 53.16448 2.82289 36184 ft 431 kts 279°
2026-05-09 09:28 53.17736 2.72352 36187 ft 445 kts 279°
2026-05-09 09:29 53.19053 2.62115 36187 ft 457 kts 279°
2026-05-09 09:29 53.20396 2.51613 36189 ft 468 kts 279°
2026-05-09 09:30 53.21737 2.40968 36186 ft 476 kts 279°
2026-05-09 09:30 53.23090 2.30087 36197 ft 482 kts 279°
2026-05-09 09:31 53.24453 2.19069 36184 ft 486 kts 279°
2026-05-09 09:32 53.26473 2.02525 36201 ft 484 kts 278°
2026-05-09 09:32 53.27801 1.91483 36173 ft 485 kts 279°
2026-05-09 09:33 53.29157 1.80415 36184 ft 486 kts 278°
2026-05-09 09:33 53.30474 1.69349 36185 ft 486 kts 278°
2026-05-09 09:34 53.31779 1.58298 36181 ft 486 kts 278°
2026-05-09 09:34 53.33112 1.47199 36189 ft 487 kts 279°
2026-05-09 09:36 53.39552 1.03133 36184 ft 488 kts 280°
2026-05-09 09:37 53.41102 0.92148 36174 ft 488 kts 280°
2026-05-09 09:37 53.42658 0.81063 36188 ft 488 kts 280°
2026-05-09 09:38 53.44195 0.70036 36193 ft 488 kts 279°
2026-05-09 09:38 53.45726 0.58981 36189 ft 488 kts 279°
2026-05-09 09:39 53.47250 0.47896 36179 ft 488 kts 279°
2026-05-09 09:39 53.48759 0.36849 36194 ft 489 kts 279°
2026-05-09 09:40 53.50279 0.25709 36183 ft 489 kts 279°
2026-05-09 09:40 53.51792 0.14563 36181 ft 490 kts 279°
2026-05-09 09:41 53.53287 0.03411 36182 ft 490 kts 279°
2026-05-09 09:41 53.54743 -0.07676 36190 ft 491 kts 278°
2026-05-09 09:42 53.56198 -0.18822 36184 ft 491 kts 278°
2026-05-09 09:42 53.57646 -0.29967 36185 ft 491 kts 278°
2026-05-09 09:43 53.59098 -0.41220 36187 ft 491 kts 278°
2026-05-09 09:43 53.60539 -0.52450 36183 ft 492 kts 278°
2026-05-09 09:44 53.61973 -0.63714 36186 ft 492 kts 278°
2026-05-09 09:44 53.63387 -0.74912 36174 ft 492 kts 278°
2026-05-09 09:45 53.64804 -0.86205 36178 ft 491 kts 278°
2026-05-09 09:45 53.66195 -0.97392 36177 ft 490 kts 278°
2026-05-09 09:46 53.67584 -1.08631 36196 ft 491 kts 278°
2026-05-09 09:46 53.68979 -1.19905 36184 ft 491 kts 278°
2026-05-09 09:47 53.70339 -1.31152 36183 ft 491 kts 277°
2026-05-09 09:47 53.71694 -1.42433 36185 ft 491 kts 277°
2026-05-09 09:48 53.73010 -1.53750 36193 ft 491 kts 277°
2026-05-09 09:48 53.74276 -1.65035 36194 ft 491 kts 276°
2026-05-09 09:49 53.75498 -1.76271 36191 ft 490 kts 276°
2026-05-09 09:49 53.76709 -1.87531 36175 ft 488 kts 276°
2026-05-09 09:50 53.77913 -1.98789 36191 ft 487 kts 276°
2026-05-09 09:50 53.79105 -2.10010 36194 ft 487 kts 276°
2026-05-09 09:51 53.80097 -2.19437 36190 ft 487 kts 276°
2026-05-09 09:51 53.81260 -2.30583 36171 ft 488 kts 276°
2026-05-09 09:52 53.82437 -2.41963 36187 ft 488 kts 276°
2026-05-09 09:52 53.83590 -2.53231 36176 ft 488 kts 276°
2026-05-09 09:53 53.84740 -2.64579 36198 ft 489 kts 275°
2026-05-09 09:53 53.85882 -2.75950 36171 ft 490 kts 275°
2026-05-09 09:54 53.87012 -2.87327 36190 ft 490 kts 275°
2026-05-09 09:54 53.88134 -2.98725 36197 ft 490 kts 275°
2026-05-09 09:55 53.89243 -3.10114 36183 ft 490 kts 275°
2026-05-09 09:55 53.89798 -3.15855 36030 ft 492 kts 275°
2026-05-09 09:55 53.90347 -3.21565 36127 ft 490 kts 275°
2026-05-09 09:56 53.91434 -3.32969 36175 ft 490 kts 275°
2026-05-09 09:56 53.92512 -3.44374 36188 ft 490 kts 275°
2026-05-09 09:57 53.93787 -3.55684 36182 ft 493 kts 279°
2026-05-09 09:57 53.95385 -3.67003 36191 ft 493 kts 279°
2026-05-09 09:58 53.96995 -3.78342 36190 ft 493 kts 279°
2026-05-09 09:58 53.98568 -3.89640 36191 ft 493 kts 279°
2026-05-09 09:59 54.00123 -4.00999 36194 ft 493 kts 278°
2026-05-09 09:59 54.01661 -4.12353 36199 ft 493 kts 278°
2026-05-09 10:00 54.03188 -4.23709 36222 ft 493 kts 278°
2026-05-09 10:00 54.04702 -4.35048 36211 ft 493 kts 278°
2026-05-09 10:01 54.06211 -4.46430 36215 ft 493 kts 278°
2026-05-09 10:01 54.07708 -4.57814 36211 ft 493 kts 278°
2026-05-09 10:02 54.09193 -4.69201 36215 ft 492 kts 278°
2026-05-09 10:02 54.10668 -4.80600 36223 ft 493 kts 278°
2026-05-09 10:03 54.12131 -4.91999 36226 ft 492 kts 278°
2026-05-09 10:03 54.13580 -5.03372 36225 ft 492 kts 278°
2026-05-09 10:04 54.15001 -5.14618 36240 ft 490 kts 278°
2026-05-09 10:04 54.16428 -5.26004 36230 ft 488 kts 278°
2026-05-09 10:05 54.17821 -5.37212 36245 ft 486 kts 278°
2026-05-09 10:05 54.19208 -5.48472 36233 ft 485 kts 278°
2026-05-09 10:06 54.20581 -5.59705 36240 ft 484 kts 278°
2026-05-09 10:06 54.21948 -5.70979 36243 ft 484 kts 278°
2026-05-09 10:07 54.23303 -5.82251 36250 ft 484 kts 278°
2026-05-09 10:07 54.24649 -5.93551 36248 ft 485 kts 277°
2026-05-09 10:08 54.25986 -6.04863 36252 ft 485 kts 277°
2026-05-09 10:08 54.27312 -6.16174 36250 ft 485 kts 277°
2026-05-09 10:09 54.28630 -6.27516 36264 ft 486 kts 277°
2026-05-09 10:09 54.29934 -6.38845 36260 ft 486 kts 277°
2026-05-09 10:10 54.31223 -6.50144 36261 ft 486 kts 277°
2026-05-09 10:10 54.32516 -6.61565 36280 ft 485 kts 277°
2026-05-09 10:11 54.33790 -6.72919 36267 ft 484 kts 277°
2026-05-09 10:11 54.35038 -6.84145 36275 ft 482 kts 277°
2026-05-09 10:12 54.36279 -6.95424 36283 ft 481 kts 277°
2026-05-09 10:12 54.37508 -7.06696 36276 ft 480 kts 278°
2026-05-09 10:13 54.38728 -7.17962 36277 ft 480 kts 277°
2026-05-09 10:13 54.39934 -7.29225 36286 ft 480 kts 277°
2026-05-09 10:14 54.41130 -7.40500 36287 ft 480 kts 277°
2026-05-09 10:14 54.42307 -7.51692 36297 ft 481 kts 278°
2026-05-09 10:15 54.43478 -7.62929 36297 ft 481 kts 278°
2026-05-09 10:15 54.44640 -7.74195 36291 ft 481 kts 277°
2026-05-09 10:16 54.45786 -7.85411 36296 ft 481 kts 277°
2026-05-09 10:16 54.46928 -7.96740 36295 ft 481 kts 277°
2026-05-09 10:17 54.48059 -8.08067 36308 ft 480 kts 278°
2026-05-09 10:17 54.49188 -8.19371 36311 ft 480 kts 278°
2026-05-09 10:18 54.50302 -8.30665 36307 ft 479 kts 278°
2026-05-09 10:18 54.51399 -8.41956 36307 ft 478 kts 278°
2026-05-09 10:19 54.52484 -8.53230 36313 ft 477 kts 277°
2026-05-09 10:19 54.53557 -8.64498 36321 ft 477 kts 278°
2026-05-09 10:20 54.54623 -8.75801 36320 ft 478 kts 278°
2026-05-09 10:20 54.55665 -8.86967 36330 ft 478 kts 278°
2026-05-09 10:21 54.56719 -8.98378 36338 ft 478 kts 278°
2026-05-09 10:21 54.57753 -9.09689 36337 ft 479 kts 277°
2026-05-09 10:22 54.58777 -9.21024 36331 ft 479 kts 278°
2026-05-09 10:22 54.59787 -9.32308 36350 ft 480 kts 278°
2026-05-09 10:23 54.60798 -9.43722 36344 ft 481 kts 278°
2026-05-09 10:23 54.61450 -9.55181 36338 ft 480 kts 269°
2026-05-09 10:24 54.61330 -9.66700 36348 ft 480 kts 268°
2026-05-09 10:24 54.61187 -9.78226 36350 ft 481 kts 269°
2026-05-09 10:25 54.61060 -9.89781 36362 ft 484 kts 270°
2026-05-09 10:25 54.60938 -10.01398 36362 ft 486 kts 270°
2026-05-09 10:26 54.60806 -10.13057 36365 ft 487 kts 270°
2026-05-09 10:26 54.60663 -10.24727 36366 ft 488 kts 269°
2026-05-09 10:27 54.60505 -10.36430 36362 ft 488 kts 270°
2026-05-09 10:27 54.60338 -10.48130 36363 ft 490 kts 270°
2026-05-09 10:28 54.60158 -10.59886 36379 ft 491 kts 270°
2026-05-09 10:28 54.59966 -10.71664 36375 ft 491 kts 270°
2026-05-09 10:29 54.59762 -10.83434 36347 ft 492 kts 270°
2026-05-09 10:29 54.59547 -10.95237 36383 ft 493 kts 270°
2026-05-09 10:30 54.59320 -11.07065 36382 ft 494 kts 270°
2026-05-09 10:30 54.59083 -11.18832 36385 ft 495 kts 270°
2026-05-09 10:31 54.58832 -11.30702 36387 ft 496 kts 270°
2026-05-09 10:31 54.58569 -11.42574 36388 ft 496 kts 270°
2026-05-09 10:32 54.58294 -11.54459 36385 ft 496 kts 269°
2026-05-09 10:32 54.58008 -11.66325 36389 ft 495 kts 270°
2026-05-09 10:33 54.57710 -11.78193 36393 ft 495 kts 270°
2026-05-09 10:33 54.57400 -11.90064 36386 ft 495 kts 270°
2026-05-09 10:34 54.57080 -12.01921 36393 ft 495 kts 270°
2026-05-09 10:34 54.56577 -12.19710 36404 ft 496 kts 269°
2026-05-09 10:35 54.56229 -12.31515 36405 ft 496 kts 269°
2026-05-09 10:35 54.55868 -12.43358 36411 ft 497 kts 269°
2026-05-09 10:36 54.55493 -12.55259 36412 ft 497 kts 269°
2026-05-09 10:36 54.55107 -12.67165 36413 ft 498 kts 269°
2026-05-09 10:37 54.54708 -12.79082 36412 ft 498 kts 269°
2026-05-09 10:37 54.54368 -12.88994 36419 ft 499 kts 269°
2026-05-09 10:38 54.53947 -13.00921 36403 ft 499 kts 269°
2026-05-09 10:38 54.53514 -13.12862 36419 ft 500 kts 269°
2026-05-09 10:39 54.53069 -13.24815 36424 ft 500 kts 269°
2026-05-09 10:39 54.52613 -13.36762 36430 ft 501 kts 269°
2026-05-09 10:40 54.52144 -13.48696 36427 ft 501 kts 268°
2026-05-09 10:40 54.51663 -13.60654 36419 ft 501 kts 269°
2026-05-09 10:41 54.51171 -13.72627 36435 ft 501 kts 269°
2026-05-09 10:41 54.50666 -13.84593 36434 ft 502 kts 268°
2026-05-09 10:42 54.50153 -13.96525 36437 ft 502 kts 268°
2026-05-09 10:42 54.49961 -14.08499 36431 ft 500 kts 273°
2026-05-09 10:43 54.50032 -14.20470 36440 ft 501 kts 274°
2026-05-09 10:43 54.50085 -14.32450 36442 ft 501 kts 273°
2026-05-09 10:44 54.50102 -14.44473 36444 ft 502 kts 273°
2026-05-09 10:44 54.50100 -14.56477 36455 ft 502 kts 273°
2026-05-09 10:46 54.50047 -14.86495 36458 ft 504 kts 273°
2026-05-09 10:46 54.50007 -14.98563 36459 ft 505 kts 273°
2026-05-09 10:47 54.50100 -15.10636 36458 ft 504 kts 275°
2026-05-09 10:47 54.50380 -15.22683 36451 ft 504 kts 277°
2026-05-09 10:48 54.50652 -15.34729 36465 ft 505 kts 276°
2026-05-09 10:48 54.50879 -15.46822 36472 ft 506 kts 276°
2026-05-09 10:49 54.51075 -15.58949 36439 ft 508 kts 276°
2026-05-09 10:49 54.51255 -15.71059 36624 ft 505 kts 276°
2026-05-09 10:49 54.51340 -15.77083 36878 ft 503 kts 277°
2026-05-09 10:50 54.51423 -15.83048 37140 ft 502 kts 277°
2026-05-09 10:50 54.51504 -15.89049 37417 ft 501 kts 277°
2026-05-09 10:50 54.51582 -15.95034 37695 ft 500 kts 276°
2026-05-09 10:50 54.51656 -16.00956 37989 ft 499 kts 276°
2026-05-09 10:51 54.51729 -16.06927 38281 ft 497 kts 276°
2026-05-09 10:51 54.51798 -16.12897 38434 ft 499 kts 276°
2026-05-09 10:51 54.51866 -16.18878 38469 ft 502 kts 276°
2026-05-09 10:52 54.51993 -16.30900 38474 ft 509 kts 276°
2026-05-09 10:52 54.52106 -16.42994 38495 ft 513 kts 276°
2026-05-09 10:53 54.52208 -16.55305 38494 ft 515 kts 276°
2026-05-09 10:53 54.52296 -16.67649 38492 ft 515 kts 276°
2026-05-09 10:54 54.52372 -16.79976 38499 ft 514 kts 276°
2026-05-09 10:54 54.52435 -16.92175 38497 ft 512 kts 276°
2026-05-09 10:55 54.52487 -17.04400 38503 ft 510 kts 276°
2026-05-09 10:55 54.52527 -17.16586 38504 ft 508 kts 275°
2026-05-09 10:56 54.52555 -17.28741 38505 ft 507 kts 275°
2026-05-09 10:56 54.52570 -17.40866 38495 ft 507 kts 276°
2026-05-09 10:57 54.52572 -17.52914 38507 ft 505 kts 276°
2026-05-09 10:57 54.52564 -17.64993 38515 ft 504 kts 276°
2026-05-09 10:58 54.52544 -17.77059 38523 ft 504 kts 276°
2026-05-09 10:58 54.52511 -17.89087 38522 ft 504 kts 275°
2026-05-09 10:59 54.52466 -18.01197 38500 ft 505 kts 276°
2026-05-09 10:59 54.52410 -18.13193 38528 ft 505 kts 276°
2026-05-09 11:00 54.52341 -18.25303 38525 ft 506 kts 275°
2026-05-09 11:00 54.52260 -18.37426 38538 ft 507 kts 275°
2026-05-09 11:01 54.52166 -18.49552 38537 ft 507 kts 275°
2026-05-09 11:01 54.52060 -18.61706 38531 ft 508 kts 275°
2026-05-09 11:02 54.51942 -18.73879 38537 ft 509 kts 275°
2026-05-09 11:02 54.51812 -18.86060 38546 ft 510 kts 275°
2026-05-09 11:03 54.51669 -18.98204 38547 ft 511 kts 275°
2026-05-09 11:03 54.51514 -19.10434 38543 ft 512 kts 275°
2026-05-09 11:04 54.51345 -19.22684 38548 ft 512 kts 275°
2026-05-09 11:04 54.51165 -19.34940 38553 ft 513 kts 275°
2026-05-09 11:05 54.50971 -19.47237 38550 ft 514 kts 275°
2026-05-09 11:05 54.50765 -19.59525 38556 ft 515 kts 275°
2026-05-09 11:06 54.50548 -19.71714 38545 ft 515 kts 275°
2026-05-09 11:06 54.50317 -19.84047 38572 ft 516 kts 275°
2026-05-09 11:07 54.50074 -19.96405 38569 ft 517 kts 275°
2026-05-09 11:07 54.50257 -20.08694 38572 ft 511 kts 281°
2026-05-09 11:08 54.50784 -20.20880 38567 ft 511 kts 281°
2026-05-09 11:08 54.51306 -20.33094 38556 ft 512 kts 281°
2026-05-09 11:09 54.51783 -20.45193 38564 ft 513 kts 281°
2026-05-09 11:09 54.52239 -20.57462 38566 ft 514 kts 281°
2026-05-09 11:10 54.52679 -20.69761 38559 ft 515 kts 281°
2026-05-09 11:10 54.53107 -20.82063 38575 ft 514 kts 281°
2026-05-09 11:11 54.53525 -20.94352 38586 ft 514 kts 281°
2026-05-09 11:11 54.53929 -21.06560 38588 ft 515 kts 281°
2026-05-09 11:12 54.54326 -21.18950 38573 ft 515 kts 281°
2026-05-09 11:12 54.54705 -21.31190 38591 ft 515 kts 281°
2026-05-09 11:13 54.55072 -21.43461 38561 ft 515 kts 281°
2026-05-09 11:13 54.55429 -21.55801 38590 ft 515 kts 281°
2026-05-09 11:14 54.55773 -21.68129 38587 ft 516 kts 281°
2026-05-09 11:14 54.56105 -21.80477 38594 ft 516 kts 281°
2026-05-09 11:15 54.56425 -21.92849 38596 ft 516 kts 281°
2026-05-09 11:15 54.56731 -22.05197 38557 ft 515 kts 281°
2026-05-09 11:16 54.57024 -22.17520 38597 ft 515 kts 281°
2026-05-09 11:16 54.57306 -22.29846 38604 ft 515 kts 281°
2026-05-09 11:17 54.57573 -22.42114 38603 ft 515 kts 281°
2026-05-09 11:17 54.57829 -22.54431 38603 ft 515 kts 281°
2026-05-09 11:18 54.58072 -22.66724 38600 ft 515 kts 281°
2026-05-09 11:18 54.58303 -22.79049 38610 ft 515 kts 281°
2026-05-09 11:19 54.58521 -22.91385 38606 ft 515 kts 281°
2026-05-09 11:19 54.58728 -23.03733 38609 ft 515 kts 280°
2026-05-09 11:20 54.58921 -23.16067 38611 ft 515 kts 280°
2026-05-09 11:20 54.59101 -23.28400 38603 ft 514 kts 281°
2026-05-09 11:21 54.59268 -23.40612 38609 ft 514 kts 281°
2026-05-09 11:21 54.59425 -23.52958 38617 ft 515 kts 280°
2026-05-09 11:22 54.59568 -23.65299 38620 ft 515 kts 280°
2026-05-09 11:22 54.59699 -23.77653 38624 ft 516 kts 280°
2026-05-09 11:23 54.59817 -23.90022 38625 ft 516 kts 280°
2026-05-09 11:23 54.59907 -24.00306 38629 ft 516 kts 280°
2026-05-09 11:24 54.60002 -24.12700 38625 ft 517 kts 280°
2026-05-09 11:24 54.60085 -24.25112 38629 ft 518 kts 279°
2026-05-09 11:25 54.60156 -24.37554 38630 ft 518 kts 279°
2026-05-09 11:25 54.60213 -24.49975 38596 ft 518 kts 279°
2026-05-09 11:26 54.60257 -24.62315 38630 ft 518 kts 279°
2026-05-09 11:26 54.60290 -24.74746 38637 ft 518 kts 279°
2026-05-09 11:27 54.60309 -24.87178 38638 ft 519 kts 279°
2026-05-09 11:27 54.60316 -24.99622 38602 ft 519 kts 279°
2026-05-09 11:28 54.60310 -25.12060 38629 ft 519 kts 278°
2026-05-09 11:28 54.60291 -25.24508 38638 ft 519 kts 278°
2026-05-09 11:29 54.60260 -25.36955 38652 ft 519 kts 278°
2026-05-09 11:29 54.60215 -25.49403 38643 ft 519 kts 278°
2026-05-09 11:30 54.60158 -25.61873 38617 ft 519 kts 278°
2026-05-09 11:30 54.60088 -25.74298 38635 ft 519 kts 278°
2026-05-09 11:31 54.60005 -25.86752 38641 ft 518 kts 278°
2026-05-09 11:31 54.59910 -25.99168 38646 ft 517 kts 277°
2026-05-09 11:32 54.59802 -26.11577 38646 ft 517 kts 277°
2026-05-09 11:32 54.59681 -26.23962 38645 ft 516 kts 277°
2026-05-09 11:33 54.59549 -26.36324 38643 ft 515 kts 277°
2026-05-09 11:33 54.59328 -26.54805 38645 ft 515 kts 277°
2026-05-09 11:34 54.59164 -26.67146 38649 ft 515 kts 277°
2026-05-09 11:34 54.58989 -26.79405 38632 ft 514 kts 277°
2026-05-09 11:35 54.58799 -26.91786 38651 ft 513 kts 277°
2026-05-09 11:35 54.58598 -27.04092 38622 ft 513 kts 276°
2026-05-09 11:36 54.58388 -27.16217 38641 ft 512 kts 276°
2026-05-09 11:36 54.58166 -27.28306 38657 ft 511 kts 276°
2026-05-09 11:37 54.57930 -27.40542 38642 ft 509 kts 276°
2026-05-09 11:37 54.57681 -27.52756 38647 ft 509 kts 276°
2026-05-09 11:38 54.57422 -27.64949 38652 ft 509 kts 276°
2026-05-09 11:38 54.57150 -27.77107 38651 ft 509 kts 276°
2026-05-09 11:39 54.56865 -27.89308 38654 ft 509 kts 276°
2026-05-09 11:40 54.56415 -28.07598 38659 ft 510 kts 275°
2026-05-09 11:40 54.56100 -28.19798 38666 ft 511 kts 275°
2026-05-09 11:41 54.55771 -28.32032 38637 ft 511 kts 275°
2026-05-09 11:41 54.55429 -28.44272 38666 ft 511 kts 275°
2026-05-09 11:42 54.55074 -28.56515 38661 ft 511 kts 275°
2026-05-09 11:42 54.54710 -28.68701 38655 ft 512 kts 275°
2026-05-09 11:43 54.54333 -28.80870 38656 ft 512 kts 274°
2026-05-09 11:43 54.53941 -28.93120 38663 ft 512 kts 274°
2026-05-09 11:44 54.53538 -29.05356 38662 ft 512 kts 274°
2026-05-09 11:44 54.53123 -29.17553 38664 ft 511 kts 274°
2026-05-09 11:45 54.52697 -29.29745 38663 ft 512 kts 274°
2026-05-09 11:45 54.52262 -29.41822 38667 ft 512 kts 274°
2026-05-09 11:46 54.51809 -29.54066 38663 ft 513 kts 273°
2026-05-09 11:46 54.51345 -29.66248 38662 ft 512 kts 273°
2026-05-09 11:47 54.50869 -29.78431 38658 ft 511 kts 272°
2026-05-09 11:47 54.50383 -29.90628 38661 ft 511 kts 272°
2026-05-09 11:48 54.49875 -30.02811 38664 ft 512 kts 272°
2026-05-09 11:48 54.49202 -30.14959 38663 ft 513 kts 270°
2026-05-09 11:49 54.48451 -30.27115 38662 ft 513 kts 270°
2026-05-09 11:49 54.47708 -30.39177 38654 ft 512 kts 270°
2026-05-09 11:50 54.46968 -30.51295 38655 ft 511 kts 270°
2026-05-09 11:50 54.46224 -30.63399 38658 ft 511 kts 270°
2026-05-09 11:51 54.45467 -30.75533 38654 ft 511 kts 270°
2026-05-09 11:51 54.44695 -30.87676 38625 ft 511 kts 269°
2026-05-09 11:52 54.43910 -30.99800 38650 ft 511 kts 269°
2026-05-09 11:52 54.43115 -31.11914 38655 ft 511 kts 269°
2026-05-09 11:53 54.42306 -31.24045 38655 ft 511 kts 269°
2026-05-09 11:53 54.41489 -31.36110 38652 ft 511 kts 269°
2026-05-09 11:54 54.40655 -31.48228 38632 ft 511 kts 268°
2026-05-09 11:54 54.39812 -31.60304 38647 ft 511 kts 268°
2026-05-09 11:55 54.38954 -31.72416 38649 ft 511 kts 268°
2026-05-09 11:56 54.36316 -32.08622 38633 ft 511 kts 267°
2026-05-09 11:57 54.35411 -32.20682 38642 ft 511 kts 267°
2026-05-09 11:57 54.34493 -32.32760 38649 ft 511 kts 267°
2026-05-09 11:58 54.33565 -32.44821 38654 ft 510 kts 267°
2026-05-09 11:58 54.32618 -32.56860 38699 ft 509 kts 267°
2026-05-09 11:59 54.31675 -32.68829 38712 ft 508 kts 266°
2026-05-09 11:59 54.30717 -32.80859 38652 ft 509 kts 266°
2026-05-09 12:00 54.29746 -32.92834 38655 ft 509 kts 266°
2026-05-09 12:00 54.28772 -33.04681 38711 ft 508 kts 266°
2026-05-09 12:00 54.28312 -33.10228 38598 ft 511 kts 266°
2026-05-09 12:01 54.27810 -33.16246 38567 ft 511 kts 265°
2026-05-09 12:01 54.26796 -33.28288 38519 ft 511 kts 265°
2026-05-09 12:02 54.25771 -33.40313 38529 ft 510 kts 265°
2026-05-09 12:02 54.24744 -33.52232 38582 ft 509 kts 265°
2026-05-09 12:03 54.23702 -33.64171 38607 ft 507 kts 265°
2026-05-09 12:03 54.22656 -33.76011 38590 ft 505 kts 264°
2026-05-09 12:04 54.21609 -33.87722 38568 ft 504 kts 264°
2026-05-09 12:04 54.20542 -33.99529 38598 ft 502 kts 264°
2026-05-09 12:05 54.19479 -34.11174 38564 ft 502 kts 264°
2026-05-09 12:05 54.18404 -34.22806 38622 ft 500 kts 264°
2026-05-09 12:06 54.17310 -34.34530 38641 ft 499 kts 264°
2026-05-09 12:06 54.16206 -34.46227 38562 ft 501 kts 264°
2026-05-09 12:07 54.15086 -34.57970 38619 ft 501 kts 264°
2026-05-09 12:07 54.13954 -34.69708 38594 ft 502 kts 264°
2026-05-09 12:08 54.13003 -34.79471 38577 ft 501 kts 264°
2026-05-09 12:08 54.12433 -34.85247 38558 ft 486 kts 264°
2026-05-09 12:08 54.11702 -34.92607 38519 ft 465 kts 263°
2026-05-09 12:09 54.10628 -35.03407 38485 ft 461 kts 263°
2026-05-09 12:09 54.09736 -35.12331 38575 ft 459 kts 263°
2026-05-09 12:10 54.07567 -35.33714 38563 ft 459 kts 262°
2026-05-09 12:11 54.06461 -35.44446 38552 ft 460 kts 263°
2026-05-09 12:11 54.05352 -35.55115 38560 ft 460 kts 262°
2026-05-09 12:12 54.04232 -35.65788 38546 ft 460 kts 262°
2026-05-09 12:12 54.03096 -35.76507 38548 ft 460 kts 262°
2026-05-09 12:13 54.01981 -35.86945 38543 ft 460 kts 262°
2026-05-09 12:13 54.00841 -35.97530 38523 ft 460 kts 262°
2026-05-09 12:14 53.99685 -36.08161 38534 ft 458 kts 262°
2026-05-09 12:14 53.98522 -36.18776 38548 ft 456 kts 261°
2026-05-09 12:15 53.97367 -36.29219 38521 ft 450 kts 261°
2026-05-09 12:15 53.96225 -36.39448 38505 ft 446 kts 261°
2026-05-09 12:16 53.95085 -36.49587 38524 ft 445 kts 261°
2026-05-09 12:16 53.93926 -36.59840 38504 ft 452 kts 261°
2026-05-09 12:17 53.91422 -36.81665 38514 ft 450 kts 260°
2026-05-09 12:18 53.90222 -36.91992 38503 ft 448 kts 260°
2026-05-09 12:18 53.89012 -37.02323 38503 ft 448 kts 261°
2026-05-09 12:19 53.87801 -37.12587 38495 ft 448 kts 259°
2026-05-09 12:19 53.86570 -37.22937 38498 ft 449 kts 259°
2026-05-09 12:20 53.85330 -37.33287 38480 ft 449 kts 259°
2026-05-09 12:20 53.84079 -37.43637 38486 ft 449 kts 259°
2026-05-09 12:21 53.82816 -37.54015 38484 ft 450 kts 258°
2026-05-09 12:21 53.81546 -37.64365 38458 ft 449 kts 258°
2026-05-09 12:22 53.80273 -37.74666 38466 ft 446 kts 257°
2026-05-09 12:22 53.78995 -37.84919 38463 ft 445 kts 257°
2026-05-09 12:23 53.77711 -37.95158 38452 ft 445 kts 257°
2026-05-09 12:23 53.76431 -38.05289 38447 ft 446 kts 257°
2026-05-09 12:24 53.75123 -38.15559 38459 ft 447 kts 257°
2026-05-09 12:24 53.73810 -38.25798 38445 ft 447 kts 257°
2026-05-09 12:25 53.72507 -38.35918 38443 ft 445 kts 256°
2026-05-09 12:25 53.71170 -38.46189 38433 ft 445 kts 256°
2026-05-09 12:26 53.69834 -38.56365 38425 ft 444 kts 256°
2026-05-09 12:26 53.68716 -38.64831 38428 ft 445 kts 256°
2026-05-09 12:27 53.67365 -38.75010 38425 ft 445 kts 256°
2026-05-09 12:27 53.66005 -38.85188 38398 ft 445 kts 255°
2026-05-09 12:28 53.64638 -38.95345 38417 ft 443 kts 255°
2026-05-09 12:28 53.63265 -39.05471 38401 ft 443 kts 255°
2026-05-09 12:29 53.61887 -39.15571 38402 ft 442 kts 255°
2026-05-09 12:29 53.60514 -39.25559 38402 ft 442 kts 255°
2026-05-09 12:30 53.59131 -39.35558 38382 ft 443 kts 255°
2026-05-09 12:30 53.57023 -39.50678 38380 ft 442 kts 255°
2026-05-09 12:31 53.54893 -39.65789 38385 ft 442 kts 254°
2026-05-09 12:32 53.53476 -39.75774 38378 ft 442 kts 254°
2026-05-09 12:32 53.52040 -39.85822 38377 ft 442 kts 254°
2026-05-09 12:33 53.50596 -39.95870 38361 ft 443 kts 254°
2026-05-09 12:33 53.49126 -40.05904 38379 ft 442 kts 253°
2026-05-09 12:34 53.47606 -40.15912 38350 ft 442 kts 253°
2026-05-09 12:34 53.46078 -40.25879 38351 ft 440 kts 253°
2026-05-09 12:35 53.44553 -40.35817 38348 ft 439 kts 253°
2026-05-09 12:35 53.43024 -40.45734 38338 ft 439 kts 252°
2026-05-09 12:36 53.41490 -40.55629 38314 ft 438 kts 253°
2026-05-09 12:36 53.39951 -40.65501 38310 ft 438 kts 252°
2026-05-09 12:37 53.38407 -40.75342 38340 ft 437 kts 252°
2026-05-09 12:37 53.36853 -40.85191 38288 ft 438 kts 252°
2026-05-09 12:38 53.35299 -40.94982 38325 ft 438 kts 252°
2026-05-09 12:38 53.33722 -41.04855 38319 ft 438 kts 252°
2026-05-09 12:39 53.32136 -41.14728 38304 ft 439 kts 252°
2026-05-09 12:39 53.30550 -41.24546 38293 ft 439 kts 252°
2026-05-09 12:40 53.28954 -41.34374 38273 ft 439 kts 251°
2026-05-09 12:40 53.27353 -41.44166 38255 ft 438 kts 251°
2026-05-09 12:41 53.25742 -41.53966 38259 ft 437 kts 251°
2026-05-09 12:41 53.24138 -41.63669 38247 ft 436 kts 251°
2026-05-09 12:42 53.22523 -41.73381 38251 ft 435 kts 251°
2026-05-09 12:42 53.20903 -41.83065 38220 ft 434 kts 251°
2026-05-09 12:43 53.19274 -41.92756 38234 ft 434 kts 250°
2026-05-09 12:43 53.17639 -42.02424 38211 ft 434 kts 250°
2026-05-09 12:44 53.16017 -42.11966 38218 ft 432 kts 250°
2026-05-09 12:44 53.14387 -42.21499 38209 ft 432 kts 250°
2026-05-09 12:45 53.12736 -42.31105 38213 ft 431 kts 250°
2026-05-09 12:45 53.11081 -42.40680 38204 ft 432 kts 250°
2026-05-09 12:46 53.09427 -42.50199 38186 ft 432 kts 249°
2026-05-09 12:46 53.07774 -42.59665 38208 ft 432 kts 249°
2026-05-09 12:47 53.06092 -42.69240 38189 ft 430 kts 249°
2026-05-09 12:47 53.04410 -42.78773 38185 ft 429 kts 249°
2026-05-09 12:48 53.02725 -42.88267 38167 ft 428 kts 249°
2026-05-09 12:48 53.01033 -42.97750 38184 ft 427 kts 249°
2026-05-09 12:49 52.99338 -43.07195 38154 ft 427 kts 249°
2026-05-09 12:49 52.97634 -43.16645 38140 ft 427 kts 249°
2026-05-09 12:50 52.95923 -43.26087 38140 ft 428 kts 248°
2026-05-09 12:50 52.94201 -43.35541 38116 ft 428 kts 248°
2026-05-09 12:51 52.92479 -43.44942 38124 ft 428 kts 248°
2026-05-09 12:51 52.90739 -43.54400 38122 ft 429 kts 248°
2026-05-09 12:52 52.88989 -43.63858 38122 ft 430 kts 248°
2026-05-09 12:52 52.87233 -43.73305 38124 ft 430 kts 248°
2026-05-09 12:53 52.85464 -43.82771 38120 ft 430 kts 248°
2026-05-09 12:53 52.83689 -43.92219 38052 ft 430 kts 248°
2026-05-09 12:54 52.81912 -44.01637 38091 ft 428 kts 247°
2026-05-09 12:54 52.80135 -44.11010 38062 ft 427 kts 247°
2026-05-09 12:55 52.78353 -44.20355 38053 ft 426 kts 247°
2026-05-09 12:55 52.76570 -44.29663 38054 ft 425 kts 247°
2026-05-09 12:56 52.74780 -44.38957 38049 ft 425 kts 247°
2026-05-09 12:56 52.72996 -44.48177 38051 ft 425 kts 247°
2026-05-09 12:57 52.71180 -44.57518 38039 ft 425 kts 246°
2026-05-09 12:57 52.69382 -44.66723 38043 ft 424 kts 246°
2026-05-09 12:58 52.67563 -44.75991 38036 ft 424 kts 246°
2026-05-09 12:58 52.65741 -44.85225 38028 ft 424 kts 246°
2026-05-09 12:59 52.63912 -44.94455 38017 ft 424 kts 246°
2026-05-09 12:59 52.62076 -45.03675 38023 ft 424 kts 246°
2026-05-09 13:00 52.60233 -45.12888 38005 ft 424 kts 246°
2026-05-09 13:00 52.58385 -45.22083 38009 ft 424 kts 246°
2026-05-09 13:01 52.56527 -45.31281 37986 ft 424 kts 246°
2026-05-09 13:01 52.54676 -45.40408 37983 ft 423 kts 246°
2026-05-09 13:02 52.52805 -45.49587 38004 ft 423 kts 245°
2026-05-09 13:02 52.50929 -45.58747 37981 ft 424 kts 245°
2026-05-09 13:03 52.49043 -45.67912 37990 ft 424 kts 245°
2026-05-09 13:03 52.47154 -45.77053 37968 ft 424 kts 245°
2026-05-09 13:04 52.45298 -45.85990 37938 ft 425 kts 245°
2026-05-09 13:04 52.43400 -45.95091 37920 ft 425 kts 245°
2026-05-09 13:05 52.41491 -46.04205 37947 ft 424 kts 244°
2026-05-09 13:05 52.39567 -46.13346 37955 ft 425 kts 244°
2026-05-09 13:06 52.37634 -46.22491 37941 ft 425 kts 244°
2026-05-09 13:06 52.35696 -46.31617 37918 ft 425 kts 244°
2026-05-09 13:07 52.33753 -46.40730 37923 ft 423 kts 244°
2026-05-09 13:07 52.31811 -46.49794 37956 ft 422 kts 243°
2026-05-09 13:08 52.29856 -46.58863 37921 ft 423 kts 243°
2026-05-09 13:08 52.27903 -46.67899 37908 ft 423 kts 243°
2026-05-09 13:09 52.25932 -46.76966 37901 ft 423 kts 243°
2026-05-09 13:09 52.23952 -46.86017 37898 ft 424 kts 243°
2026-05-09 13:10 52.21967 -46.95071 37897 ft 424 kts 243°
2026-05-09 13:10 52.19973 -47.04131 37886 ft 425 kts 242°
2026-05-09 13:11 52.17970 -47.13200 37871 ft 426 kts 242°
2026-05-09 13:11 52.15965 -47.22238 37859 ft 426 kts 242°
2026-05-09 13:12 52.13947 -47.31303 37871 ft 425 kts 242°
2026-05-09 13:12 52.12271 -47.38817 37938 ft 427 kts 242°
2026-05-09 13:13 52.10229 -47.47910 37955 ft 429 kts 242°
2026-05-09 13:13 52.08173 -47.57021 37926 ft 428 kts 242°
2026-05-09 13:14 52.06119 -47.66089 37837 ft 426 kts 242°
2026-05-09 13:16 51.97972 -48.01658 37842 ft 417 kts 241°
2026-05-09 13:16 51.95928 -48.10480 37823 ft 418 kts 241°
2026-05-09 13:17 51.93876 -48.19306 37821 ft 419 kts 241°
2026-05-09 13:17 51.91813 -48.28143 37801 ft 420 kts 241°
2026-05-09 13:18 51.89753 -48.36936 37810 ft 420 kts 241°
2026-05-09 13:18 51.87674 -48.45772 37815 ft 421 kts 240°
2026-05-09 13:19 51.85592 -48.54591 37848 ft 418 kts 240°
2026-05-09 13:19 51.83515 -48.63353 37777 ft 415 kts 240°
2026-05-09 13:20 51.81447 -48.72038 37778 ft 412 kts 240°
2026-05-09 13:20 51.79391 -48.80639 37773 ft 409 kts 240°
2026-05-09 13:21 51.77334 -48.89201 37824 ft 408 kts 239°
2026-05-09 13:21 51.75272 -48.97745 37792 ft 408 kts 239°
2026-05-09 13:22 51.73208 -49.06275 37783 ft 408 kts 239°
2026-05-09 13:22 51.71148 -49.14751 37785 ft 409 kts 239°
2026-05-09 13:23 51.65925 -49.36106 37798 ft 411 kts 239°
2026-05-09 13:24 51.63817 -49.44664 37764 ft 412 kts 239°
2026-05-09 13:24 51.61699 -49.53235 37765 ft 412 kts 239°
2026-05-09 13:25 51.59574 -49.61800 37767 ft 412 kts 239°
2026-05-09 13:26 51.56371 -49.74646 37758 ft 413 kts 238°
2026-05-09 13:26 51.54227 -49.83211 37759 ft 412 kts 238°
2026-05-09 13:27 51.52079 -49.91759 37746 ft 412 kts 238°
2026-05-09 13:27 51.49929 -50.00280 37752 ft 411 kts 238°
2026-05-09 13:28 51.47843 -50.08772 37757 ft 412 kts 239°
2026-05-09 13:28 51.45769 -50.17339 37752 ft 412 kts 239°
2026-05-09 13:29 51.43688 -50.25896 37751 ft 411 kts 239°
2026-05-09 13:29 51.41593 -50.34447 37719 ft 413 kts 239°
2026-05-09 13:30 51.39490 -50.42993 37752 ft 413 kts 239°
2026-05-09 13:30 51.37374 -50.51554 37741 ft 413 kts 239°
2026-05-09 13:31 51.35253 -50.60100 37740 ft 414 kts 238°
2026-05-09 13:31 51.33121 -50.68659 37740 ft 414 kts 238°
2026-05-09 13:32 51.30979 -50.77230 37812 ft 416 kts 238°
2026-05-09 13:32 51.27751 -50.90075 37733 ft 418 kts 238°
2026-05-09 13:33 51.25579 -50.98682 37725 ft 418 kts 238°
2026-05-09 13:33 51.23402 -51.07278 37721 ft 418 kts 238°
2026-05-09 13:34 51.21215 -51.15876 37721 ft 418 kts 238°
2026-05-09 13:34 51.19022 -51.24464 37754 ft 417 kts 238°
2026-05-09 13:35 51.16825 -51.33036 37739 ft 418 kts 238°
2026-05-09 13:35 51.14623 -51.41592 37731 ft 418 kts 238°
2026-05-09 13:36 51.12415 -51.50145 37725 ft 417 kts 238°
2026-05-09 13:36 51.10204 -51.58674 37737 ft 417 kts 238°
2026-05-09 13:37 51.07999 -51.67145 37786 ft 417 kts 238°
2026-05-09 13:37 51.05773 -51.75666 37755 ft 417 kts 238°
2026-05-09 13:38 51.03538 -51.84189 37749 ft 418 kts 238°
2026-05-09 13:38 51.01299 -51.92699 37729 ft 417 kts 238°
2026-05-09 13:39 50.99055 -52.01199 37738 ft 417 kts 238°
2026-05-09 13:39 50.96812 -52.09664 37756 ft 416 kts 237°
2026-05-09 13:40 50.94561 -52.18122 37755 ft 416 kts 237°
2026-05-09 13:40 50.92303 -52.26575 37761 ft 416 kts 237°
2026-05-09 13:41 50.90046 -52.34999 37765 ft 416 kts 237°
2026-05-09 13:41 50.87779 -52.43428 37767 ft 416 kts 237°
2026-05-09 13:42 50.85509 -52.51842 37779 ft 416 kts 237°
2026-05-09 13:42 50.83229 -52.60254 37769 ft 417 kts 237°
2026-05-09 13:43 50.80787 -52.68539 37776 ft 414 kts 234°
2026-05-09 13:43 50.78243 -52.76709 37783 ft 415 kts 234°
2026-05-09 13:44 50.75709 -52.84857 37861 ft 416 kts 234°
2026-05-09 13:44 50.73157 -52.93100 37798 ft 419 kts 235°
2026-05-09 13:45 50.70603 -53.01368 37855 ft 420 kts 235°
2026-05-09 13:45 50.68020 -53.09703 37824 ft 423 kts 235°
2026-05-09 13:46 50.65422 -53.18062 37829 ft 426 kts 235°
2026-05-09 13:46 50.62806 -53.26454 37792 ft 428 kts 235°
2026-05-09 13:47 50.60180 -53.34849 37846 ft 427 kts 235°
2026-05-09 13:47 50.57564 -53.43184 37864 ft 428 kts 236°
2026-05-09 13:48 50.54918 -53.51581 37831 ft 429 kts 236°
2026-05-09 13:48 50.52267 -53.59967 37831 ft 428 kts 236°
2026-05-09 13:49 50.49614 -53.68330 37836 ft 428 kts 235°
2026-05-09 13:49 50.46957 -53.76681 37832 ft 428 kts 235°
2026-05-09 13:50 50.44291 -53.85026 37869 ft 427 kts 236°
2026-05-09 13:50 50.41619 -53.93364 37875 ft 427 kts 236°
2026-05-09 13:51 50.38933 -54.01713 37857 ft 430 kts 236°
2026-05-09 13:51 50.36230 -54.10087 37875 ft 432 kts 236°
2026-05-09 13:52 50.33511 -54.18487 37888 ft 433 kts 236°
2026-05-09 13:52 50.30778 -54.26904 37878 ft 434 kts 236°
2026-05-09 13:53 50.28054 -54.35266 37904 ft 434 kts 236°
2026-05-09 13:53 50.25311 -54.43657 37894 ft 434 kts 236°
2026-05-09 13:54 50.22560 -54.52041 37888 ft 434 kts 236°
2026-05-09 13:54 50.19807 -54.60406 37911 ft 432 kts 235°
2026-05-09 13:55 50.17054 -54.68740 37933 ft 432 kts 236°
2026-05-09 13:55 50.14292 -54.77073 37909 ft 433 kts 236°
2026-05-09 13:56 50.11522 -54.85405 37936 ft 433 kts 236°
2026-05-09 13:56 50.08744 -54.93732 37919 ft 433 kts 236°
2026-05-09 13:57 50.05959 -55.02054 37936 ft 433 kts 236°
2026-05-09 13:57 50.03161 -55.10388 37920 ft 436 kts 236°
2026-05-09 13:58 50.00345 -55.18744 37925 ft 437 kts 236°
2026-05-09 13:58 49.97522 -55.27096 37933 ft 437 kts 236°
2026-05-09 13:59 49.94687 -55.35456 37938 ft 437 kts 236°
2026-05-09 13:59 49.91864 -55.43756 37935 ft 438 kts 236°
2026-05-09 14:00 49.89965 -55.49320 37956 ft 438 kts 236°
2026-05-09 14:00 49.86161 -55.60436 37942 ft 438 kts 236°
2026-05-09 14:01 49.83761 -55.67423 37946 ft 438 kts 236°
2026-05-09 14:01 49.80911 -55.75697 37946 ft 438 kts 236°
2026-05-09 14:02 49.78042 -55.83996 37962 ft 437 kts 236°
2026-05-09 14:02 49.75163 -55.92300 37951 ft 438 kts 237°
2026-05-09 14:03 49.72281 -56.00582 37953 ft 438 kts 236°
2026-05-09 14:03 49.69386 -56.08872 37929 ft 438 kts 236°
2026-05-09 14:04 49.66492 -56.17139 37929 ft 438 kts 236°
2026-05-09 14:04 49.63590 -56.25400 37945 ft 438 kts 237°
2026-05-09 14:05 49.60680 -56.33656 37934 ft 438 kts 236°
2026-05-09 14:05 49.57764 -56.41905 37926 ft 438 kts 236°
2026-05-09 14:06 49.54842 -56.50144 37950 ft 438 kts 236°
2026-05-09 14:06 49.51914 -56.58372 37939 ft 438 kts 236°
2026-05-09 14:07 49.48980 -56.66592 37928 ft 439 kts 237°
2026-05-09 14:07 49.46035 -56.74817 37921 ft 439 kts 237°
2026-05-09 14:08 49.43088 -56.83018 37936 ft 438 kts 237°
2026-05-09 14:08 49.40138 -56.91206 37922 ft 438 kts 236°
2026-05-09 14:09 49.37185 -56.99373 37930 ft 437 kts 236°
2026-05-09 14:09 49.34227 -57.07528 37930 ft 438 kts 237°
2026-05-09 14:10 49.29811 -57.19657 37930 ft 439 kts 237°
2026-05-09 14:11 49.26834 -57.27803 37941 ft 439 kts 237°
2026-05-09 14:11 49.23848 -57.35947 37936 ft 439 kts 237°
2026-05-09 14:12 49.20855 -57.44084 37981 ft 439 kts 237°
2026-05-09 14:12 49.17880 -57.52148 37945 ft 440 kts 237°
2026-05-09 14:13 49.14869 -57.60284 37948 ft 440 kts 237°
2026-05-09 14:15 49.02822 -57.92586 37958 ft 440 kts 237°
2026-05-09 14:15 48.99783 -58.00673 37940 ft 440 kts 237°
2026-05-09 14:16 48.96736 -58.08755 37902 ft 440 kts 237°
2026-05-09 14:16 48.93706 -58.16769 37913 ft 439 kts 237°
2026-05-09 14:17 48.90656 -58.24808 37926 ft 439 kts 237°
2026-05-09 14:17 48.87607 -58.32823 37960 ft 439 kts 237°
2026-05-09 14:18 48.84545 -58.40844 37983 ft 439 kts 237°
2026-05-09 14:18 48.81473 -58.48870 37962 ft 440 kts 237°
2026-05-09 14:19 48.78389 -58.56901 37994 ft 441 kts 237°
2026-05-09 14:19 48.75298 -58.64928 37983 ft 441 kts 237°
2026-05-09 14:20 48.72197 -58.72958 38001 ft 441 kts 237°
2026-05-09 14:20 48.69096 -58.80960 37997 ft 441 kts 237°
2026-05-09 14:21 48.64425 -58.92969 38003 ft 441 kts 237°
2026-05-09 14:21 48.61299 -59.00979 38004 ft 441 kts 237°
2026-05-09 14:22 48.58172 -59.08964 38017 ft 442 kts 237°
2026-05-09 14:22 48.55038 -59.16943 37995 ft 442 kts 237°
2026-05-09 14:23 48.51896 -59.24920 38009 ft 442 kts 237°
2026-05-09 14:23 48.48768 -59.32836 38019 ft 442 kts 237°
2026-05-09 14:24 48.45598 -59.40835 38008 ft 442 kts 237°
2026-05-09 14:24 48.42462 -59.48726 38001 ft 442 kts 237°
2026-05-09 14:25 48.39303 -59.56651 38012 ft 441 kts 237°
2026-05-09 14:25 48.36142 -59.64557 38010 ft 441 kts 237°
2026-05-09 14:26 48.32970 -59.72466 38010 ft 441 kts 237°
2026-05-09 14:26 48.29797 -59.80357 38011 ft 441 kts 237°
2026-05-09 14:27 48.26619 -59.88235 38013 ft 441 kts 237°
2026-05-09 14:27 48.23434 -59.96107 38010 ft 441 kts 237°
2026-05-09 14:28 48.20244 -60.03969 38037 ft 441 kts 237°
2026-05-09 14:28 48.17048 -60.11823 38002 ft 441 kts 237°
2026-05-09 14:29 48.13868 -60.19614 37990 ft 441 kts 237°
2026-05-09 14:29 48.10668 -60.27433 38028 ft 440 kts 237°
2026-05-09 14:30 48.07467 -60.35230 38010 ft 440 kts 237°
2026-05-09 14:30 48.04263 -60.43015 38011 ft 439 kts 237°
2026-05-09 14:31 48.01059 -60.50776 38007 ft 439 kts 237°
2026-05-09 14:31 47.97852 -60.58520 38009 ft 438 kts 237°
2026-05-09 14:32 47.94644 -60.66246 38014 ft 438 kts 237°
2026-05-09 14:32 47.91431 -60.73961 38016 ft 438 kts 237°
2026-05-09 14:33 47.88212 -60.81669 38046 ft 437 kts 237°
2026-05-09 14:33 47.84991 -60.89360 38040 ft 437 kts 237°
2026-05-09 14:34 47.81796 -60.96967 38015 ft 437 kts 237°
2026-05-09 14:34 47.78569 -61.04629 38052 ft 437 kts 237°
2026-05-09 14:35 47.75365 -61.12215 38014 ft 438 kts 237°
2026-05-09 14:35 47.72123 -61.19870 38016 ft 438 kts 237°
2026-05-09 14:36 47.68878 -61.27508 38026 ft 438 kts 237°
2026-05-09 14:36 47.65658 -61.35068 37982 ft 439 kts 237°
2026-05-09 14:37 47.62395 -61.42708 37989 ft 438 kts 237°
2026-05-09 14:37 47.59152 -61.50282 37972 ft 438 kts 237°
2026-05-09 14:38 47.55890 -61.57875 37983 ft 437 kts 237°
2026-05-09 14:38 47.52634 -61.65435 37938 ft 437 kts 237°
2026-05-09 14:39 47.49365 -61.73006 37937 ft 436 kts 237°
2026-05-09 14:39 47.46098 -61.80549 37987 ft 436 kts 237°
2026-05-09 14:40 47.42827 -61.88080 38005 ft 436 kts 237°
2026-05-09 14:40 47.39561 -61.95581 38017 ft 437 kts 237°
2026-05-09 14:41 47.36269 -62.03120 38048 ft 437 kts 237°
2026-05-09 14:41 47.33010 -62.10562 38028 ft 437 kts 237°
2026-05-09 14:42 47.29733 -62.18027 38015 ft 436 kts 237°
2026-05-09 14:42 47.26434 -62.25519 38008 ft 436 kts 237°
2026-05-09 14:43 47.23136 -62.32993 38022 ft 435 kts 237°
2026-05-09 14:43 47.19840 -62.40437 38008 ft 434 kts 237°
2026-05-09 14:44 47.16545 -62.47860 38031 ft 434 kts 237°
2026-05-09 14:44 47.13269 -62.55221 38028 ft 434 kts 237°
2026-05-09 14:45 47.09957 -62.62645 38032 ft 434 kts 237°
2026-05-09 14:45 47.06665 -62.70002 37946 ft 436 kts 237°
2026-05-09 14:46 47.03349 -62.77394 38000 ft 434 kts 237°
2026-05-09 14:46 47.00069 -62.84684 38045 ft 433 kts 237°
2026-05-09 14:47 46.96761 -62.92020 38030 ft 434 kts 237°
2026-05-09 14:47 46.93992 -62.98143 37993 ft 435 kts 237°
2026-05-09 14:48 46.90654 -63.05510 38013 ft 434 kts 237°
2026-05-09 14:48 46.87315 -63.12857 38065 ft 433 kts 237°
2026-05-09 14:49 46.83984 -63.20169 38024 ft 434 kts 237°
2026-05-09 14:49 46.80646 -63.27475 37998 ft 435 kts 237°
2026-05-09 14:50 46.77288 -63.34806 38044 ft 433 kts 237°
2026-05-09 14:50 46.73930 -63.42118 38067 ft 432 kts 237°
2026-05-09 14:51 46.70586 -63.49381 38039 ft 433 kts 237°
2026-05-09 14:51 46.67221 -63.56671 38025 ft 434 kts 237°
2026-05-09 14:52 46.63847 -63.63960 38026 ft 434 kts 237°
2026-05-09 14:52 46.60468 -63.71240 38035 ft 434 kts 237°
2026-05-09 14:53 46.57110 -63.78457 38041 ft 434 kts 237°
2026-05-09 14:53 46.53741 -63.85679 38036 ft 434 kts 237°
2026-05-09 14:54 46.50384 -63.92857 38035 ft 434 kts 237°
2026-05-09 14:54 46.47006 -64.00061 38023 ft 433 kts 237°
2026-05-09 14:55 46.43626 -64.07250 38036 ft 432 kts 237°
2026-05-09 14:55 46.40280 -64.14349 38034 ft 432 kts 237°
2026-05-09 14:56 46.36909 -64.21484 38032 ft 432 kts 237°
2026-05-09 14:56 46.33569 -64.28533 38033 ft 431 kts 237°
2026-05-09 14:57 46.30175 -64.35680 38015 ft 431 kts 237°
2026-05-09 14:57 46.26784 -64.42803 38030 ft 430 kts 237°
2026-05-09 14:58 46.23386 -64.49920 38029 ft 430 kts 237°
2026-05-09 14:58 46.19983 -64.57032 38025 ft 430 kts 237°
2026-05-09 14:59 46.16627 -64.64027 37990 ft 430 kts 237°
2026-05-09 14:59 46.13218 -64.71116 38037 ft 429 kts 237°
2026-05-09 15:00 46.09856 -64.78090 38063 ft 427 kts 237°
2026-05-09 15:00 46.08158 -64.81619 37931 ft 430 kts 237°
2026-05-09 15:00 46.06466 -64.85133 37939 ft 430 kts 237°
2026-05-09 15:01 46.01401 -64.95571 37955 ft 428 kts 237°
2026-05-09 15:02 45.97986 -65.02567 37924 ft 428 kts 237°
2026-05-09 15:02 45.94582 -65.09544 37984 ft 428 kts 237°
2026-05-09 15:03 45.91163 -65.16540 38027 ft 428 kts 236°
2026-05-09 15:03 45.87727 -65.23555 38003 ft 429 kts 237°
2026-05-09 15:04 45.84301 -65.30531 37985 ft 431 kts 237°
2026-05-09 15:06 45.70538 -65.58373 37949 ft 426 kts 236°
2026-05-09 15:06 45.67117 -65.65251 38047 ft 424 kts 236°
2026-05-09 15:07 45.63697 -65.72113 38011 ft 425 kts 236°
2026-05-09 15:07 45.60310 -65.78890 38027 ft 426 kts 236°
2026-05-09 15:08 45.56895 -65.85710 37998 ft 426 kts 236°
2026-05-09 15:08 45.51735 -65.95980 37945 ft 427 kts 236°
2026-05-09 15:10 45.38032 -66.23073 38043 ft 421 kts 236°
2026-05-09 15:11 45.34615 -66.29789 38065 ft 422 kts 236°
2026-05-09 15:11 45.31188 -66.36511 37906 ft 424 kts 236°
2026-05-09 15:12 45.27737 -66.43262 38034 ft 420 kts 236°
2026-05-09 15:12 45.24302 -66.49964 38048 ft 420 kts 236°
2026-05-09 15:13 45.20904 -66.56583 38059 ft 421 kts 236°
2026-05-09 15:13 45.17452 -66.63289 38086 ft 421 kts 236°
2026-05-09 15:14 45.13999 -66.69981 38070 ft 421 kts 236°
2026-05-09 15:14 45.10542 -66.76666 38091 ft 421 kts 236°
2026-05-09 15:15 45.07657 -66.82233 38071 ft 422 kts 236°
2026-05-09 15:15 45.03586 -66.90070 38078 ft 422 kts 236°
2026-05-09 15:16 45.00102 -66.96760 38064 ft 422 kts 236°
2026-05-09 15:16 44.96633 -67.03409 38068 ft 421 kts 236°
2026-05-09 15:17 44.93225 -67.09925 38070 ft 419 kts 236°
2026-05-09 15:17 44.89807 -67.16644 38079 ft 417 kts 240°
2026-05-09 15:18 44.86949 -67.23689 38032 ft 416 kts 243°
2026-05-09 15:18 44.84117 -67.30756 38055 ft 414 kts 243°
2026-05-09 15:19 44.81294 -67.37758 38059 ft 413 kts 243°
2026-05-09 15:19 44.78457 -67.44766 38138 ft 412 kts 242°
2026-05-09 15:20 44.74193 -67.55256 38062 ft 414 kts 242°
2026-05-09 15:21 44.71333 -67.62269 38083 ft 413 kts 243°
2026-05-09 15:21 44.68470 -67.69274 38107 ft 411 kts 242°
2026-05-09 15:22 44.65609 -67.76255 38043 ft 412 kts 242°
2026-05-09 15:22 44.62764 -67.83182 38080 ft 410 kts 242°
2026-05-09 15:23 44.59937 -67.90046 38130 ft 409 kts 242°
2026-05-09 15:23 44.57086 -67.96954 38128 ft 409 kts 242°
2026-05-09 15:24 44.54253 -68.03801 38090 ft 410 kts 242°
2026-05-09 15:24 44.51384 -68.10719 38078 ft 410 kts 242°
2026-05-09 15:25 44.48509 -68.17635 38073 ft 411 kts 242°
2026-05-09 15:25 44.45633 -68.24534 38023 ft 412 kts 242°
2026-05-09 15:26 44.41319 -68.34849 38012 ft 409 kts 242°
2026-05-09 15:26 44.38445 -68.41703 37955 ft 407 kts 242°
2026-05-09 15:27 44.35592 -68.48490 38038 ft 404 kts 242°
2026-05-09 15:27 44.32743 -68.55251 38053 ft 404 kts 242°
2026-05-09 15:28 44.29889 -68.62010 38068 ft 404 kts 242°
2026-05-09 15:28 44.27025 -68.68778 38001 ft 407 kts 242°
2026-05-09 15:29 44.24145 -68.75564 38027 ft 405 kts 242°
2026-05-09 15:29 44.21292 -68.82271 38031 ft 405 kts 242°
2026-05-09 15:30 44.18414 -68.89020 38064 ft 405 kts 242°
2026-05-09 15:30 44.15543 -68.95738 38045 ft 404 kts 242°
2026-05-09 15:31 44.12671 -69.02443 38051 ft 404 kts 242°
2026-05-09 15:31 44.09789 -69.09154 38054 ft 404 kts 242°
2026-05-09 15:32 44.06907 -69.15852 38060 ft 404 kts 242°
2026-05-09 15:32 44.04016 -69.22555 38029 ft 404 kts 243°
2026-05-09 15:33 44.01124 -69.29242 38061 ft 403 kts 242°
2026-05-09 15:33 43.98241 -69.35894 38045 ft 403 kts 242°
2026-05-09 15:34 43.95838 -69.41429 38053 ft 401 kts 242°
2026-05-09 15:34 43.92949 -69.48065 38057 ft 401 kts 242°
2026-05-09 15:35 43.90134 -69.54519 38002 ft 402 kts 243°
2026-05-09 15:35 43.87289 -69.61027 38066 ft 399 kts 242°
2026-05-09 15:36 43.84431 -69.67550 38070 ft 400 kts 242°
2026-05-09 15:36 43.81549 -69.74115 38073 ft 401 kts 242°
2026-05-09 15:37 43.78654 -69.80693 38059 ft 402 kts 242°
2026-05-09 15:37 43.75749 -69.87277 38061 ft 403 kts 242°
2026-05-09 15:38 43.72824 -69.93893 38047 ft 403 kts 242°
2026-05-09 15:38 43.69903 -70.00484 38052 ft 402 kts 242°
2026-05-09 15:39 43.66981 -70.07061 38031 ft 401 kts 242°
2026-05-09 15:39 43.64104 -70.13526 38078 ft 400 kts 242°
2026-05-09 15:40 43.61185 -70.20068 38039 ft 400 kts 242°
2026-05-09 15:40 43.58255 -70.26621 38070 ft 399 kts 242°
2026-05-09 15:41 43.55334 -70.33142 38015 ft 400 kts 242°
2026-05-09 15:41 43.52428 -70.39612 38065 ft 399 kts 242°
2026-05-09 15:42 43.49535 -70.46042 38060 ft 399 kts 242°
2026-05-09 15:42 43.46621 -70.52506 38090 ft 398 kts 242°
2026-05-09 15:43 43.43392 -70.58734 38062 ft 405 kts 230°
2026-05-09 15:43 43.39061 -70.63720 38066 ft 414 kts 220°
2026-05-09 15:44 43.33946 -70.67401 38005 ft 421 kts 213°
2026-05-09 15:44 43.28659 -70.70855 37890 ft 421 kts 213°
2026-05-09 15:45 43.23433 -70.74290 37953 ft 417 kts 213°
2026-05-09 15:45 43.18285 -70.77713 38033 ft 414 kts 213°
2026-05-09 15:46 43.13111 -70.81171 38041 ft 414 kts 213°
2026-05-09 15:46 43.07928 -70.84632 38047 ft 415 kts 213°
2026-05-09 15:47 43.02756 -70.88079 38054 ft 416 kts 213°
2026-05-09 15:47 42.97549 -70.91540 38054 ft 416 kts 213°
2026-05-09 15:48 42.92357 -70.94983 38038 ft 416 kts 213°
2026-05-09 15:48 42.87138 -70.98439 37977 ft 417 kts 213°
2026-05-09 15:49 42.81932 -71.01877 37963 ft 415 kts 213°
2026-05-09 15:49 42.76760 -71.05285 38083 ft 411 kts 213°
2026-05-09 15:50 42.71654 -71.08647 38064 ft 410 kts 213°
2026-05-09 15:50 42.66527 -71.12019 38073 ft 409 kts 213°
2026-05-09 15:51 42.61399 -71.15383 38050 ft 409 kts 213°
2026-05-09 15:51 42.56287 -71.18731 38046 ft 408 kts 213°
2026-05-09 15:52 42.48651 -71.23720 38066 ft 407 kts 213°
2026-05-09 15:53 42.43563 -71.27036 38028 ft 407 kts 213°
2026-05-09 15:53 42.38447 -71.30366 38026 ft 409 kts 213°
2026-05-09 15:54 42.33409 -71.33639 38033 ft 410 kts 213°
2026-05-09 15:54 42.28292 -71.36957 38003 ft 411 kts 213°
2026-05-09 15:55 42.23129 -71.40298 38012 ft 412 kts 213°
2026-05-09 15:55 42.18006 -71.43607 38033 ft 412 kts 213°
2026-05-09 15:56 42.12926 -71.46881 37983 ft 413 kts 213°
2026-05-09 15:56 42.07798 -71.50184 37944 ft 413 kts 213°
2026-05-09 15:57 42.02611 -71.53514 37995 ft 412 kts 213°
2026-05-09 15:57 41.97446 -71.56827 37911 ft 412 kts 213°
2026-05-09 15:58 41.92289 -71.60125 37971 ft 409 kts 213°
2026-05-09 15:58 41.87160 -71.63404 37911 ft 413 kts 213°
2026-05-09 15:58 41.84548 -71.65078 37401 ft 416 kts 213°
2026-05-09 15:59 41.81957 -71.66729 36955 ft 413 kts 213°
2026-05-09 15:59 41.79371 -71.68372 36547 ft 410 kts 213°
2026-05-09 15:59 41.76796 -71.70009 36061 ft 410 kts 213°
2026-05-09 15:59 41.74224 -71.71643 35528 ft 409 kts 213°
2026-05-09 16:00 41.71658 -71.73272 35091 ft 406 kts 213°
2026-05-09 16:00 41.70798 -71.73818 34952 ft 404 kts 213°
2026-05-09 16:00 41.66614 -71.76468 34221 ft 396 kts 213°
2026-05-09 16:00 41.64133 -71.78038 33697 ft 393 kts 213°
2026-05-09 16:01 41.61673 -71.79596 33219 ft 389 kts 213°
2026-05-09 16:01 41.59239 -71.81135 32700 ft 386 kts 213°
2026-05-09 16:01 41.56819 -71.82665 32326 ft 383 kts 213°
2026-05-09 16:01 41.54435 -71.84170 31984 ft 376 kts 213°
2026-05-09 16:02 41.52107 -71.85637 31662 ft 370 kts 213°
2026-05-09 16:02 41.47554 -71.88508 30942 ft 364 kts 213°
2026-05-09 16:02 41.45282 -71.89938 30780 ft 356 kts 213°
2026-05-09 16:03 41.40852 -71.92729 30775 ft 360 kts 213°
2026-05-09 16:03 41.36301 -71.95598 30762 ft 365 kts 213°
2026-05-09 16:04 41.31706 -71.98476 30749 ft 365 kts 213°
2026-05-09 16:04 41.29411 -71.99912 30569 ft 366 kts 213°
2026-05-09 16:04 41.27088 -72.01368 29985 ft 370 kts 213°
2026-05-09 16:05 41.24766 -72.02821 29235 ft 372 kts 213°
2026-05-09 16:05 41.22490 -72.04242 28556 ft 372 kts 213°
2026-05-09 16:05 41.20116 -72.05724 27814 ft 373 kts 212°
2026-05-09 16:05 41.17769 -72.07188 27211 ft 372 kts 212°
2026-05-09 16:06 41.15429 -72.08644 26576 ft 371 kts 212°
2026-05-09 16:06 41.13102 -72.10121 25915 ft 366 kts 215°
2026-05-09 16:06 41.11119 -72.12130 25279 ft 355 kts 231°
2026-05-09 16:06 41.09643 -72.14579 24739 ft 350 kts 239°
2026-05-09 16:07 41.08509 -72.17412 24156 ft 347 kts 250°
2026-05-09 16:07 41.07739 -72.20432 23578 ft 346 kts 252°
2026-05-09 16:07 41.07041 -72.23343 22917 ft 345 kts 253°
2026-05-09 16:07 41.06315 -72.26393 22223 ft 345 kts 252°
2026-05-09 16:08 41.05587 -72.29423 21573 ft 344 kts 252°
2026-05-09 16:08 41.04855 -72.32433 20927 ft 344 kts 252°
2026-05-09 16:08 41.04115 -72.35443 20283 ft 343 kts 252°
2026-05-09 16:08 41.03374 -72.38439 19672 ft 342 kts 252°
2026-05-09 16:09 41.02633 -72.41420 19095 ft 340 kts 252°
2026-05-09 16:09 41.01892 -72.44391 18505 ft 339 kts 252°
2026-05-09 16:09 41.01154 -72.47347 17857 ft 338 kts 252°
2026-05-09 16:09 41.00423 -72.50275 17189 ft 337 kts 251°
2026-05-09 16:10 40.99689 -72.53205 16547 ft 336 kts 251°
2026-05-09 16:10 40.98962 -72.56102 15906 ft 336 kts 251°
2026-05-09 16:10 40.98216 -72.59071 15276 ft 335 kts 250°
2026-05-09 16:10 40.97491 -72.61955 14699 ft 334 kts 250°
2026-05-09 16:11 40.96750 -72.64900 14103 ft 333 kts 249°
2026-05-09 16:11 40.96038 -72.67728 13442 ft 315 kts 249°
2026-05-09 16:11 40.95371 -72.70378 12752 ft 300 kts 248°
2026-05-09 16:11 40.94726 -72.72933 12288 ft 282 kts 248°
2026-05-09 16:12 40.94144 -72.75242 12087 ft 263 kts 248°
2026-05-09 16:12 40.93563 -72.77533 11997 ft 257 kts 246°
2026-05-09 16:12 40.92730 -72.79595 11991 ft 255 kts 231°
2026-05-09 16:12 40.91552 -72.81339 11992 ft 255 kts 221°
2026-05-09 16:13 40.90150 -72.82782 11963 ft 256 kts 217°
2026-05-09 16:13 40.88691 -72.84145 11639 ft 258 kts 216°
2026-05-09 16:13 40.87229 -72.85498 11195 ft 253 kts 216°
2026-05-09 16:13 40.85802 -72.86829 10812 ft 248 kts 216°
2026-05-09 16:14 40.84407 -72.88140 10436 ft 247 kts 216°
2026-05-09 16:14 40.83001 -72.89470 9995 ft 249 kts 216°
2026-05-09 16:14 40.81589 -72.90810 9482 ft 250 kts 216°
2026-05-09 16:14 40.80185 -72.92148 8962 ft 247 kts 216°
2026-05-09 16:15 40.78809 -72.93460 8458 ft 243 kts 216°
2026-05-09 16:15 40.77447 -72.94761 7943 ft 239 kts 216°
2026-05-09 16:15 40.76105 -72.96043 7450 ft 238 kts 216°
2026-05-09 16:15 40.74766 -72.97323 6948 ft 237 kts 216°
2026-05-09 16:16 40.73431 -72.98597 6473 ft 236 kts 216°
2026-05-09 16:16 40.72072 -72.99894 5988 ft 247 kts 216°
2026-05-09 16:16 40.70660 -73.01240 5451 ft 252 kts 216°
2026-05-09 16:16 40.69402 -73.02766 4926 ft 251 kts 235°
2026-05-09 16:17 40.68691 -73.04885 4441 ft 257 kts 251°
2026-05-09 16:17 40.68481 -73.07231 4121 ft 258 kts 264°
2026-05-09 16:17 40.68685 -73.09529 3991 ft 251 kts 282°
2026-05-09 16:17 40.69354 -73.11658 3990 ft 252 kts 287°
2026-05-09 16:18 40.70061 -73.13765 3982 ft 251 kts 287°
2026-05-09 16:18 40.70771 -73.15869 3986 ft 251 kts 287°
2026-05-09 16:18 40.71485 -73.17972 3980 ft 252 kts 287°
2026-05-09 16:18 40.72205 -73.20081 3977 ft 252 kts 287°
2026-05-09 16:19 40.72923 -73.22181 3980 ft 252 kts 287°
2026-05-09 16:19 40.73644 -73.24284 3982 ft 252 kts 287°
2026-05-09 16:19 40.74364 -73.26387 3978 ft 252 kts 287°
2026-05-09 16:19 40.75086 -73.28490 3974 ft 251 kts 287°
2026-05-09 16:20 40.75806 -73.30592 3990 ft 251 kts 287°
2026-05-09 16:20 40.76517 -73.32695 3985 ft 250 kts 287°
2026-05-09 16:20 40.76983 -73.34081 4000 ft 250 kts 287°
2026-05-09 16:20 40.77677 -73.36169 3997 ft 250 kts 287°
2026-05-09 16:21 40.78368 -73.38270 3975 ft 251 kts 287°
2026-05-09 16:21 40.79060 -73.40385 3970 ft 251 kts 287°
2026-05-09 16:21 40.79754 -73.42528 3679 ft 258 kts 287°
2026-05-09 16:21 40.80455 -73.44725 3182 ft 260 kts 287°
2026-05-09 16:22 40.81140 -73.46896 2663 ft 258 kts 287°
2026-05-09 16:22 40.81811 -73.49019 2210 ft 240 kts 287°
2026-05-09 16:22 40.82418 -73.50957 2021 ft 217 kts 287°
2026-05-09 16:22 40.82962 -73.52693 1965 ft 194 kts 287°
2026-05-09 16:23 40.83467 -73.54283 1971 ft 184 kts 287°
2026-05-09 16:23 40.83948 -73.55846 1998 ft 185 kts 285°
2026-05-09 16:23 40.84336 -73.57423 1984 ft 175 kts 275°
2026-05-09 16:23 40.84126 -73.58908 1984 ft 164 kts 233°
2026-05-09 16:24 40.83284 -73.59947 1989 ft 169 kts 221°
2026-05-09 16:24 40.82369 -73.60941 1975 ft 171 kts 219°
2026-05-09 16:24 40.81432 -73.61914 1995 ft 172 kts 220°
2026-05-09 16:24 40.80462 -73.62850 1983 ft 170 kts 216°
2026-05-09 16:25 40.79464 -73.63703 1992 ft 172 kts 214°
2026-05-09 16:25 40.78451 -73.64522 2010 ft 170 kts 213°
2026-05-09 16:25 40.77445 -73.65318 2038 ft 168 kts 213°
2026-05-09 16:25 40.76427 -73.66127 1995 ft 173 kts 212°
2026-05-09 16:26 40.75395 -73.66933 1988 ft 172 kts 212°
2026-05-09 16:26 40.74383 -73.67730 1972 ft 166 kts 213°
2026-05-09 16:26 40.73389 -73.68515 1996 ft 170 kts 213°
2026-05-09 16:26 40.72360 -73.69327 1824 ft 174 kts 213°
2026-05-09 16:27 40.71318 -73.70145 1589 ft 174 kts 212°
2026-05-09 16:27 40.70276 -73.70963 1375 ft 175 kts 212°
2026-05-09 16:27 40.69241 -73.71777 1116 ft 171 kts 211°
2026-05-09 16:27 40.68251 -73.72556 994 ft 159 kts 212°
2026-05-09 16:28 40.67294 -73.73339 815 ft 167 kts 212°
2026-05-09 16:28 40.66304 -73.74122 483 ft 164 kts 208°
2026-05-09 16:28 40.65366 -73.74840 255 ft 151 kts 208°
2026-05-09 16:28 40.64461 -73.75543 52 ft 147 kts 208°
2026-05-09 16:29 40.63645 -73.76172 27 ft 116 kts 211°
2026-05-09 16:29 40.63145 -73.76564 28 ft 61 kts 210°
2026-05-09 16:29 40.62923 -73.76737 30 ft 25 kts 212°
2026-05-09 16:29 40.62710 -73.76907 28 ft 44 kts 210°
2026-05-09 16:30 40.62576 -73.77093 27 ft 25 kts 271°
2026-05-09 16:30 40.62627 -73.77239 29 ft 9 kts 341°
2026-05-09 16:30 40.62641 -73.77244 29 ft 0 kts 346°
2026-05-09 16:36 40.62678 -73.77255 26 ft 20 kts 349°
2026-05-09 16:36 40.62980 -73.77067 31 ft 1 kts 357°
2026-05-09 16:37 40.62990 -73.77094 29 ft 11 kts 297°
2026-05-09 16:37 40.63035 -73.77198 31 ft 14 kts 299°
2026-05-09 16:37 40.63088 -73.77318 32 ft 16 kts 300°
2026-05-09 16:37 40.63141 -73.77432 26 ft 11 kts 302°
2026-05-09 16:38 40.63178 -73.77517 27 ft 11 kts 300°
2026-05-09 16:38 40.63204 -73.77575 27 ft 0 kts 300°
2026-05-09 16:38 40.63205 -73.77577 27 ft 1 kts 300°
2026-05-09 16:38 40.63247 -73.77674 29 ft 20 kts 300°
2026-05-09 16:39 40.63322 -73.77834 27 ft 20 kts 302°
2026-05-09 16:39 40.63395 -73.77913 29 ft 13 kts 21°
2026-05-09 16:39 40.63475 -73.77850 28 ft 14 kts 30°
2026-05-09 16:39 40.63525 -73.77814 28 ft 3 kts 21°
2026-05-09 16:40 40.63545 -73.77817 30 ft 3 kts 339°
2026-05-09 16:40 40.63551 -73.77822 29 ft 2 kts 332°
2026-05-09 16:42 40.63716 -73.77981 31 ft 0 kts 269°
2026-05-09 16:42 40.63715 -73.78002 28 ft 1 kts 266°
2026-05-09 16:42 40.63714 -73.78012 30 ft 0 kts 265°